Regional Weather Roundup
Issued by NWS

Home | Current Version | Previous Version | Graphics & Text | Print | Product List | Glossary On
Versions: 1 2 3 4 5 6 7 8 9 10 11 12 13 14 15 16 17 18 19 20 21 22 23 24 25 26 27 28 29 30 31 32 33 34 35 36 37 38 39 40 41 42 43 44 45 46 47 48 49 50
000
ASUS43 KFSD 201802
RWRSD

WEATHER ROUNDUP FOR SOUTH DAKOTA
NATIONAL WEATHER SERVICE SIOUX FALLS SD
100 PM CDT SUN APR 20 2014

NOTE: "FAIR" INDICATES FEW OR NO CLOUDS BELOW 12,000 FEET WITH NO
SIGNIFICANT WEATHER AND/OR OBSTRUCTIONS TO VISIBILITY.


SDZ001>005-009-010-012>017-201900-
NORTHWEST AND NORTH CENTRAL SOUTH DAKOTA

CITY           SKY/WX    TMP DP  RH WIND       PRES   REMARKS
FAITH            N/A     70  42  36 S17G26    29.90F
MOBRIDGE       MOSUNNY   68  26  20 S15       29.91F
$$

SDZ012>016-024>037-041>051-057-063-072>074-201900-
SOUTHWEST AND SOUTH CENTRAL SOUTH DAKOTA

CITY           SKY/WX    TMP DP  RH WIND       PRES   REMARKS
RAPID CTY ARPT SUNNY     71  42  35 NE6       29.92S
PIERRE         SUNNY     73  31  21 SE21G29   29.91F
CUSTER         SUNNY     66  26  22 VRB7G16   29.99S
ELLSWORTH AFB  SUNNY     69  41  35 NE10      29.92F
PHILIP         SUNNY     72  44  36 SW9       29.90F
PINE RIDGE     SUNNY     72  38  29 W15       29.94F
WINNER         FAIR      75  34  22 SE14G21   29.95F
$$

SDZ004>011-016>023-039-040-201900-
NORTHEAST SOUTH DAKOTA

CITY           SKY/WX    TMP DP  RH WIND       PRES   REMARKS
ABERDEEN       MOSUNNY   71  29  21 S10G18    29.96F
WATERTOWN      SUNNY     71  29  21 SE9       29.98F
$$

SDZ017-020-022-023-036>040-048>070-201900-
SOUTHEAST SOUTH DAKOTA

CITY           SKY/WX    TMP DP  RH WIND       PRES   REMARKS
SIOUX FALLS    MOSUNNY   74  41  30 E9G21     29.96F
HURON          SUNNY     74  26  16 SE8       29.96F
CHAMBERLAIN      N/A     74  29  19 SE16G22   29.95F
MITCHELL       SUNNY     76  31  19 E10       29.96F
YANKTON        MOSUNNY   72  46  40 E8        29.96F
$$

ABBREVIATIONS USED IN REMARKS
   TC - TEMPERATURE IN CELSIUS
  WCI - WIND CHILL INDEX
   HX - HEAT INDEX
  VSB - VISIBILITY




USA.gov is the U.S. government's official web portal to all federal, state and local government web resources and services.